This is the latest recevied weather packets stored in our database for station/object OK1FET-4. If no packets are shown the sender has not sent any weather packets the latest 10 day(s).
| Time | Temp. | Humidity | Pressure | Rain* | Wind** | Luminosity | Snow |
|---|---|---|---|---|---|---|---|
| 1777401054 | 12.22° C | 44% | 1021.6 hPa | - | - | - | - |
| 1777400754 | 12.78° C | 43% | 1021.6 hPa | - | - | - | - |
| 1777400454 | 12.78° C | 42% | 1021.5 hPa | - | - | - | - |
| 1777400153 | 12.78° C | 42% | 1021.4 hPa | - | - | - | - |
| 1777399853 | 13.33° C | 41% | 1021.4 hPa | - | - | - | - |
| 1777399553 | 13.89° C | 41% | 1021.3 hPa | - | - | - | - |
| 1777399252 | 13.89° C | 41% | 1021.2 hPa | - | - | - | - |
| 1777398952 | 14.44° C | 40% | 1021 hPa | - | - | - | - |
| 1777398652 | 14.44° C | 40% | 1021 hPa | - | - | - | - |
| 1777398351 | 15° C | 40% | 1020.8 hPa | - | - | - | - |
| 1777398051 | 15° C | 39% | 1020.6 hPa | - | - | - | - |
| 1777397750 | 15.56° C | 39% | 1020.7 hPa | - | - | - | - |
| 1777397450 | 15.56° C | 39% | 1020.6 hPa | - | - | - | - |
| 1777397149 | 15.56° C | 39% | 1020.5 hPa | - | - | - | - |
| 1777396849 | 16.11° C | 38% | 1020.4 hPa | - | - | - | - |
| 1777396548 | 16.11° C | 38% | 1020.4 hPa | - | - | - | - |
| 1777396247 | 16.11° C | 38% | 1020.3 hPa | - | - | - | - |
| 1777395947 | 16.11° C | 38% | 1020.1 hPa | - | - | - | - |
| 1777395646 | 16.67° C | 37% | 1020.2 hPa | - | - | - | - |
| 1777395346 | 16.67° C | 37% | 1020.2 hPa | - | - | - | - |
| 1777395045 | 16.67° C | 38% | 1020.3 hPa | - | - | - | - |
| 1777394745 | 16.67° C | 38% | 1020 hPa | - | - | - | - |
| 1777394444 | 16.67° C | 37% | 1020.1 hPa | - | - | - | - |
| 1777394143 | 17.22° C | 37% | 1020 hPa | - | - | - | - |
| 1777393843 | 17.22° C | 36% | 1019.9 hPa | - | - | - | - |
* Rain since midnight (hover to see other rain measurements)
** Current wind speed in m/s (hover to see current wind gust speed)